Probability
0 0 0 0 1 1 1 2 2 2 3 4 4 4 5 6 6 5 4 3 3 3 3 3 3 4 5 5 3 2 1 1 1 0 0 0 0 0 0 0 0 0 0
0 0 0 0 1 1 1 2 2 1 1 2 3 3 3 4 4 3 2 1 2 3 3 3 3 4 5 5 3 2 1 1 1 0 0 0 0 0 0 0 0 0 0
0 0 0 0 0 0 1 1 1 0 0 1 1 1 1 1 1 1 0 0 1 3 3 3 4 5 5 4 3 3 2 1 1 0 0 0 0 0 0 0 0 0 0
0 0 0 0 0 0 0 0 0 0 0 0 0 0 0 0 0 0 0 1 2 3 3 3 3 4 4 3 3 3 2 2 1 0 0 0 0 0 0 0 0 0 0
0 0 0 0 0 0 0 0 0 0 0 0 0 0 0 0 0 0 0 1 3 3 3 3 3 3 3 3 2 2 1 1 0 0 0 0 0 0 0 0 0 0 0
0 0 0 0 0 0 0 0 0 0 0 0 0 0 0 0 0 0 0 1 2 2 2 2 2 2 2 1 1 1 0 0 0 0 0 0 0 0 0 0 0 0 0
0 0 0 0 0 0 0 0 0 0 0 0 0 0 0 0 0 0 0 1 1 1 1 1 1 1 1 0 0 0 0 0 0 0 0 0 0 0 0 0 0 0 0
0 0 0 0 0 0 0 0 0 0 0 0 0 0 0 0 0 0 0 0 0 0 0 0 0 0 0 0 0 0 0 0 0 0 0 0 0 0 0 0 0 0 0
0 0 0 0 0 0 0 0 0 0 0 0 0 0 0 0 0 0 0 0 0 0 0 0 0 0 0 0 0 0 0 0 0 0 0 0 0 0 0 0 0 0 0
0 0 0 0 0 0 0 0 0 0 0 0 0 0 0 0 0 0 0 0 0 0 0 0 0 0 0 0 0 0 0 0 0 0 0 0 0 0 0 0 0 0 0
0 0 0 0 0 0 0 0 0 0 0 0 0 0 0 0 0 0 0 0 0 0 0 0 0 0 0 0 0 0 0 0 0 0 0 0 0 0 0 0 0 0 0
0 0 0 0 0 0 0 0 0 0 0 0 0 0 0 0 0 0 0 0 0 0 0 0 0 0 0 0 0 0 0 0 0 0 0 0 0 0 0 0 0 0 0
0 0 0 0 0 0 0 0 0 0 0 0 0 0 0 0 0 0 0 0 0 0 0 0 0 0 0 0 0 0 0 0 0 0 0 0 0 0 0 0 0 0 0
0 0 0 0 0 0 0 0 0 0 0 0 0 0 0 0 0 0 0 0 0 0 0 0 0 0 0 0 0 0 0 0 0 0 0 0 0 0 0 0 0 0 0
0 0 0 0 0 0 0 0 0 0 0 0 0 0 0 0 0 0 0 0 0 0 0 0 0 0 0 0 0 0 0 0 0 0 0 0 0 0 0 0 0 0 0
0 0 0 0 0 0 0 0 0 0 0 0 0 0 0 0 0 0 0 0 0 0 0 0 0 0 0 0 0 0 0 0 0 0 0 0 0 0 0 0 0 0 0
0 0 0 0 0 0 0 0 0 0 0 0 0 0 0 0 0 0 0 0 0 0 0 0 0 0 0 0 0 0 0 0 0 0 0 0 0 0 0 0 0 0 0
0 0 0 0 0 0 0 0 0 0 0 0 0 0 0 0 0 0 0 0 0 0 0 0 0 0 0 0 0 0 0 0 0 0 0 0 0 0 0 0 0 0 0
0 0 0 0 0 0 0 0 0 0 0 0 0 0 0 0 0 0 0 0 0 0 0 0 0 0 0 0 0 0 0 0 0 0 0 0 0 0 0 0 0 0 0
0 0 0 0 0 0 0 0 0 0 0 0 0 0 0 0 0 0 0 0 0 0 0 0 0 0 0 0 0 0 0 0 0 0 0 0 0 0 0 0 0 0 0
0 0 0 0 0 0 0 0 0 0 0 0 0 0 0 0 0 0 0 0 0 0 0 0 0 0 0 0 0 0 0 0 0 0 0 0 0 0 0 0 0 0 0
0 0 0 0 0 0 0 0 0 0 0 0 0 0 0 0 0 0 0 0 0 0 0 0 0 0 0 0 0 0 0 0 0 0 0 0 0 0 0 0 0 0 0
0 0 0 0 0 0 0 0 0 0 0 0 0 0 0 0 0 0 0 0 0 0 0 0 0 0 0 0 0 0 0 0 0 0 0 0 0 0 0 0 0 0 0
0 0 0 0 0 0 0 0 0 0 0 0 0 0 0 0 0 0 0 0 0 0 0 0 0 0 0 0 0 0 0 0 0 0 0 0 0 0 0 0 0 0 0
0 0 0 0 0 0 0 0 0 0 0 0 0 0 0 0 0 0 0 0 0 0 0 0 0 0 0 0 0 0 0 0 0 0 0 0 0 0 0 0 0 0 0
0 0 0 0 0 0 0 0 0 0 0 0 0 0 0 0 0 0 0 0 0 0 0 0 0 0 0 0 0 0 0 0 0 0 0 0 0 0 0 0 0 0 0
Wind_Speed
12 11 11 9 9 9 8 8 7 6 5 4 3 1 0 1 2 4 5 6 7 7 7 7 7 7 5 4 4 4 3 3 3 2 1 1 2 2 2 0 1 2 3
11 11 10 10 10 10 9 9 7 6 6 6 5 4 3 2 1 1 4 5 6 7 7 7 7 6 7 5 4 4 4 3 3 4 3 2 2 1 1 1 1 1 2
11 11 11 11 11 11 10 9 8 8 7 7 7 6 5 4 3 2 1 3 4 4 5 6 6 7 7 5 6 5 4 4 3 3 3 2 2 2 2 2 2 2 2
11 11 11 11 11 10 10 10 9 9 8 8 7 6 6 5 5 4 3 3 3 3 4 5 5 6 6 7 6 6 5 5 4 4 4 3 3 2 2 2 2 3 2
11 11 11 11 10 10 10 10 10 9 9 8 7 7 7 5 6 5 4 4 4 5 4 4 4 5 5 4 4 5 6 5 5 4 4 3 3 3 2 2 2 3 4
10 10 10 10 10 10 10 10 10 10 9 8 8 8 8 6 8 8 5 4 4 5 5 5 6 7 9 8 8 7 5 5 5 4 4 4 4 3 2 2 3 3 3
10 10 10 10 10 10 10 10 10 9 9 9 9 8 8 8 10 9 8 4 5 5 5 5 5 7 7 8 10 9 8 7 4 3 5 4 4 4 3 3 2 2 3
10 10 10 10 10 10 10 10 10 9 8 8 8 8 8 10 11 10 7 6 6 6 6 6 6 7 6 6 8 8 8 7 5 4 5 5 4 3 3 3 4 4 4
9 10 10 10 9 9 10 9 9 8 8 8 8 9 9 10 12 9 6 5 7 8 7 7 7 8 7 4 7 9 9 9 11 13 12 11 11 9 4 3 4 4 4
8 8 8 8 9 9 9 8 8 7 7 7 9 9 10 10 12 11 7 5 6 7 7 9 11 9 7 3 6 8 9 8 8 9 9 8 8 7 4 3 2 1 3
7 7 7 8 8 8 8 7 7 7 7 8 9 9 9 10 11 13 10 5 5 6 6 6 7 10 9 7 5 7 7 6 7 7 6 6 6 6 6 6 5 3 3
5 6 7 7 7 7 8 8 8 8 8 8 8 8 7 8 10 11 13 11 7 7 6 6 8 11 11 10 8 9 6 4 5 5 6 5 5 5 5 6 7 7 7
5 5 6 6 6 7 7 7 7 7 6 6 6 7 7 6 7 11 12 12 10 7 7 10 10 9 9 10 11 7 4 4 5 5 6 5 5 5 5 5 7 8 9
4 4 4 5 6 7 6 6 7 7 6 6 6 6 6 6 6 5 5 6 7 8 8 9 10 10 8 8 6 5 5 5 4 5 5 5 4 4 4 3 4 4 5
3 3 3 4 4 5 6 6 6 7 7 6 6 5 5 6 7 8 5 5 4 4 5 5 5 5 6 5 5 5 5 4 5 4 4 4 4 4 4 3 2 3 4
2 2 2 2 2 3 3 4 6 6 7 8 9 7 6 7 6 8 9 9 7 3 3 5 5 5 5 5 5 5 5 4 4 4 4 4 4 4 4 3 3 3 4
1 1 1 1 1 2 2 3 3 4 5 7 8 9 9 7 7 7 7 7 6 3 4 5 5 5 5 4 4 4 4 4 3 3 3 3 3 3 3 3 3 3 4
1 1 1 0 0 1 1 2 2 2 3 4 6 7 7 7 7 5 2 2 5 4 4 4 4 4 4 4 4 3 3 3 3 3 3 3 3 3 3 3 3 3 3
2 1 1 1 1 0 0 0 1 1 2 2 2 4 4 3 4 4 2 3 4 4 4 4 4 3 3 3 3 3 3 2 3 2 3 3 2 3 3 3 4 3 1
2 1 2 2 2 1 1 1 1 1 1 1 2 2 1 1 2 3 3 3 3 3 3 3 3 3 2 2 2 2 2 3 2 2 2 2 2 2 3 3 3 3 2
3 3 5 4 3 2 2 1 1 1 1 0 1 2 3 1 2 2 2 2 2 2 2 2 2 2 2 2 2 2 2 2 2 2 2 2 2 2 2 2 3 2 3
4 3 4 4 3 3 3 2 2 2 2 2 1 3 3 2 0 1 1 1 2 1 1 1 2 2 1 1 1 2 2 2 2 2 2 2 2 2 2 2 3 3 3
4 4 4 4 4 4 4 4 4 3 3 3 3 3 3 2 2 2 1 2 2 2 2 2 2 2 2 2 1 2 2 2 2 2 2 3 3 3 3 3 3 3 3
5 5 5 4 4 5 5 5 5 5 4 4 4 4 4 4 4 4 3 3 3 3 3 3 3 3 4 3 2 2 2 1 2 3 3 3 3 3 3 3 3 4 3
5 5 5 5 5 5 5 6 6 6 6 5 5 5 5 5 5 5 5 4 5 5 5 5 4 4 6 6 5 3 3 1 2 2 4 4 4 4 4 4 4 4 4
6 6 5 5 5 5 6 6 6 6 6 6 6 5 5 5 6 6 6 6 6 6 6 6 7 7 7 6 6 5 6 5 4 4 5 4 5 4 5 4 5 5 5
Wind_Direction
357 358 360 1 3 3 4 3 3 360 0 357 348 342 40 183 201 208 207 202 201 201 197 196 196 189 187 190 192 190 192 187 180 148 134 143 173 165 139 196 219 206 130
359 1 4 6 8 8 9 8 12 18 20 19 23 40 46 47 56 196 191 192 194 192 188 183 185 180 178 176 175 177 173 170 169 162 154 161 164 131 129 135 150 125 107
3 5 9 11 11 9 11 13 16 24 31 33 33 38 42 41 37 42 112 157 168 168 168 169 170 171 171 166 169 170 164 162 163 158 150 141 140 142 145 137 130 110 100
7 9 11 11 10 10 13 17 21 24 30 29 32 34 37 43 42 43 66 103 120 131 145 155 164 172 172 170 170 168 161 156 156 153 141 138 135 143 163 156 138 122 106
11 12 11 9 11 16 18 19 25 26 28 29 33 39 38 38 37 38 54 75 93 106 114 124 134 138 140 150 159 159 156 154 156 151 145 142 140 150 150 154 141 124 96
15 15 10 11 15 18 21 24 28 28 27 28 31 36 40 40 35 36 42 73 88 97 101 107 117 125 120 110 98 98 111 140 142 141 144 141 133 130 130 163 154 156 123
18 20 15 15 19 18 20 26 28 30 31 33 32 33 38 38 39 44 47 69 79 85 95 101 103 107 120 119 115 114 96 82 82 122 127 125 129 135 151 154 142 117 96
19 21 21 19 21 20 21 23 25 31 33 33 34 35 40 40 39 44 49 72 79 81 86 94 103 107 100 109 114 107 96 83 76 94 101 95 96 112 122 118 115 112 107
20 19 21 20 20 21 23 22 22 29 35 39 40 40 43 42 37 38 42 77 80 79 75 71 84 97 84 96 119 114 107 96 76 74 74 82 72 54 39 125 142 151 128
18 18 21 21 23 23 24 22 24 30 37 46 48 44 44 44 36 31 30 78 84 84 81 77 68 78 79 62 125 122 118 117 118 114 108 115 104 89 33 72 93 123 122
16 22 26 25 28 27 26 25 28 34 38 47 53 49 46 42 44 38 31 61 78 81 79 78 75 75 71 54 67 95 96 108 111 105 97 91 86 78 66 57 49 39 68
24 29 30 29 27 28 31 30 32 33 38 42 47 50 48 48 44 47 48 50 54 79 76 79 82 79 71 62 74 85 90 105 108 107 99 89 83 77 71 70 70 66 62
33 38 34 34 36 31 29 32 35 35 34 37 40 43 45 47 57 59 60 57 54 70 73 75 84 89 93 84 82 86 105 105 106 105 98 90 84 86 87 86 86 83 76
36 38 41 36 38 40 33 31 34 29 29 34 38 39 43 46 41 47 72 84 88 90 95 95 88 79 85 94 106 96 80 72 85 94 99 104 105 101 96 97 104 107 96
37 44 50 47 39 39 49 39 31 43 26 17 26 33 36 43 30 20 32 59 66 79 104 106 100 100 94 93 90 87 91 98 93 98 105 109 112 109 100 92 90 104 103
26 40 43 48 44 39 51 84 73 57 53 45 33 25 58 53 45 51 58 63 61 50 94 94 89 86 87 91 95 93 87 85 88 95 101 104 109 109 108 104 103 103 104
336 36 46 33 39 35 35 35 75 111 104 73 54 46 49 54 58 61 68 75 60 47 88 88 87 87 87 87 88 91 91 89 86 95 98 101 105 110 111 110 110 110 109
240 158 243 207 339 10 34 38 37 43 70 86 83 69 60 62 60 52 24 134 89 78 81 87 90 89 90 91 92 95 98 101 103 104 105 104 108 111 111 114 112 115 119
223 208 210 223 236 259 95 69 67 67 63 67 86 102 96 109 101 52 7 72 84 90 90 91 90 92 95 96 96 101 105 105 110 119 113 110 114 120 121 124 114 100 126
218 180 250 238 220 211 204 204 151 118 81 64 61 59 96 130 89 81 71 69 84 95 99 100 97 94 97 101 110 123 130 129 132 130 124 125 122 125 131 135 136 145 134
226 192 204 234 231 224 220 222 205 203 206 117 75 61 352 354 66 74 79 84 88 100 110 113 117 125 121 126 142 150 151 144 146 148 145 146 144 138 137 141 145 144 136
233 226 220 228 224 223 224 222 219 219 218 218 188 156 194 245 196 142 133 140 134 131 133 156 161 149 156 177 188 183 176 168 166 170 165 159 161 164 163 162 163 160 159
236 232 226 225 227 211 223 227 224 227 224 220 216 208 203 217 215 211 192 176 175 179 178 191 193 182 183 192 202 223 213 185 177 183 187 179 183 181 183 174 171 177 176
234 236 234 228 227 227 227 227 225 226 230 228 223 220 219 217 220 216 212 201 197 196 195 200 208 203 196 196 199 206 214 184 203 198 211 208 199 192 187 181 185 185 182
232 235 235 234 232 232 234 233 232 229 227 230 230 226 224 222 220 217 213 208 209 210 208 207 206 208 207 204 205 196 125 86 292 275 205 213 208 203 201 194 191 191 193
229 235 236 236 235 236 237 237 236 234 233 232 232 231 229 227 225 220 214 211 210 211 210 210 212 210 209 210 204 175 160 186 212 257 256 222 210 207 205 203 200 202 198